Location: Zagreb
(45.8000°N, 16.0000°E)
Time: 14:03:43
(UTC+02:00)

Vanguard 1 - Pass Details

Date: 13 August 2022
Orbit: 649 x 3832 km, 34.2° (Epoch: 25 September)

Event Time Altitude Azimuth Distance (km) Brightness Sun altitude
Rises 09:03:49 0° 273° (W) 7,022 13.9 31.7°
Reaches altitude 10° 09:08:14 10° 269° (W) 6,305 13.8 32.5°
Maximum altitude 09:28:44 51° 202° (SSW) 4,428 13.8 35.9°
Drops below altitude 10° 09:49:04 10° 135° (SE) 6,232 15.2 39.3°
Sets 09:53:26 0° 130° (SE) 6,936 15.2 40.0°
